sat.trackr.live / text

‹ back to catalog

STARLINK-5585

NORAD 57333 · 2023-099F

PAYLOAD ACTIVE UNKNOWN

§ Identity

Operator
Country
US
Launch date
2023-07-16
Launch site
AFETR
Launch vehicle
Mass (kg)
RCS (m²)

Purposes: comms

External: N2YO · Heavens-Above · Gunter

§ Orbital elements

Epoch: 2026-05-24T13:59:11.385888Z

Period
94.27 min
Inclination
43.0014°
Eccentricity
0.0001394
Mean motion
15.27578080 rev/d
Perigee alt
482.1 km
Apogee alt
484.0 km
Semi-major
6,861.2 km
B*
3.9095e-5
RAAN
183.7684°
Arg perigee
271.0655°
Mean anomaly
89.0037°
Rev number
15,768

§ Raw data

STARLINK-55851 57333U 23099F   26144.58277067  .00000814  00000+0  39095-4 0  99952 57333  43.0014 183.7684 0001394 271.0655  89.0037 15.27578080157682

JSON: /api/v1/satellites/57333 · /tle

For live sub-satellite position, see the globe view (requires WebGL).

§ Visibility from observer

Set your observer location to see the next 7 days of passes ≥ 10°. The values pass through the URL so the page stays shareable.

No JS? Fill the form by hand. The geolocation button needs JavaScript.